Terminal Aerodrome Forecast
Issued by NWS Albany, NY

Home | Current Version | Previous Version | Text Only | Print | Product List | Glossary On
Versions: 1 2 3 4 5 6 7 8 9 10 11 12 13 14 15 16 17 18 19 20 21 22 23 24 25 26 27
000
FTUS41 KALY 232040 AAA
TAFALB
TAF AMD
KALB 232040Z 2321/2418 05008G15KT P6SM FEW029 BKN035 OVC220
     FM240300 01014G19KT 3SM -SN BR BKN015 OVC020
     FM240700 01015G23KT 1SM -FZRASNPL BR VV009
     FM241300 35010KT 3SM -RASN BR BKN020 OVC030=

USA.gov is the U.S. government's official web portal to all federal, state and local government web resources and services.